Regional Weather Roundup
Issued by NWS

Home | Current Version | Previous Version | Graphics & Text | Print | Product List | Glossary On
Versions: 1 2 3 4 5 6 7 8 9 10 11 12 13 14 15 16 17 18 19 20 21 22 23 24 25 26 27 28 29 30 31 32 33 34 35 36 37 38 39 40 41 42 43 44 45 46 47 48 49 50
000
ASUS44 KMEG 300810
RWRTN
TENNESSEE HOURLY STATE WEATHER ROUNDUP
NATIONAL WEATHER SERVICE MEMPHIS TN
300 AM CDT THU JUL 30 2015

TNZ002-004-019-021-049-052-054-088>092-300900-
WEST TENNESSEE

CITY           SKY/WX    TMP DP  RH WIND       PRES   REMARKS
MEMPHIS INTL   CLEAR     83  75  77 N5        30.02F HX  90
NWS MEMPHIS      N/A     82 N/A N/A MISG        N/A
JACKSON        PTCLDY    79  75  87 N5        30.02F
DYERSBURG        N/A    N/A N/A N/A MISG        N/A
PARIS          PTCLDY    75  73  94 N5        30.05S
$$

TNZ008-025-027-028-033-062-065-066-300900-
NORTH MIDDLE TENNESSEE

CITY           SKY/WX    TMP DP  RH WIND       PRES   REMARKS
NASHVILLE      CLEAR     78  73  84 NW3       30.02S
CLARKSVILLE    CLOUDY    75  73  93 N6        30.03R
SMYRNA         CLEAR     76  72  87 CALM      30.02S
CROSSVILLE     MOCLDY    71  68  90 CALM      30.07S
$$

TNZ061-075-076-078-094-096-097-300900-
SOUTH MIDDLE TENNESSEE

CITY           SKY/WX    TMP DP  RH WIND       PRES   REMARKS
FAYETTEVILLE   CLEAR     75  73  94 CALM      30.01F
TULLAHOMA      CLEAR     75  68  78 CALM      30.04S
WINCHESTER     CLEAR     75  73  94 CALM      30.03R
MCMINNVILLE    CLEAR     72  72 100 CALM      30.03S
COLUMBIA       CLEAR     75  75 100 CALM      30.01F
SHELBYVILLE    CLEAR     75  73  94 NE5       30.03S
$$

TNZ017-018-042-046-047-300900-
NORTHEAST TENNESSEE

CITY           SKY/WX    TMP DP  RH WIND       PRES   REMARKS
TRI CITIES     MOCLDY    73  71  93 CALM      30.02S
ELIZABETHTON   PTSUNNY   72  70  94 CALM      30.03S
$$

TNZ012-013-036-069-073-074-300900-
CENTRAL EAST TENNESSEE

CITY           SKY/WX    TMP DP  RH WIND       PRES   REMARKS
KNOXVILLE      MOCLDY    79  73  82 N3        29.99R
OAK RIDGE      MOCLDY    78  73  84 CALM      30.01S
GATLINBURG     PTSUNNY   73  70  88 CALM      29.99R
MORRISTOWN     MOSUNNY   77  73  88 CALM      30.02S
$$

TNZ083-085-099-300900-
SOUTHEAST TENNESSEE

CITY           SKY/WX    TMP DP  RH WIND       PRES   REMARKS
CHATTANOOGA    CLEAR     79  74  84 CALM      29.99S
$$

SKY/WX REPORTED AS FAIR MEANS FEW OR NO CLOUDS BELOW
12 THOUSAND FEET.



USA.gov is the U.S. government's official web portal to all federal, state and local government web resources and services.